Location: An Tulaigh
(53.1928°N, 8.1647°W)
Time: 23:30:43
(UTC+00:00)

Cosmos 1602 Rocket - Pass Details

Date: 15 May 2026
Orbit: 597 x 624 km, 82.5° (Epoch: 11 June)

Event Time Altitude Azimuth Distance (km) Brightness Sun altitude
Rises 22:15:20 0° 344° (NNW) 2,862 8.6 -12.2°
Reaches altitude 10° 22:17:37 10° 338° (NNW) 1,957 7.6 -12.4°
Maximum altitude 22:21:43 44° 267° (W) 847 4.5 -12.7°
Enters shadow 22:25:47 10° 195° (SSW) 1,942 5.7 -13.0°
